Theta_e
355 355 355 354 354 353 351 349 349 350 350 351 351 351 350 347 342 343 345 344 350 351 350 349 350 349 349 349 350 350 350 350 348
356 355 354 353 354 352 351 350 349 348 348 348 349 349 348 341 340 341 342 344 349 349 348 347 347 346 346 347 348 349 349 349 350
356 355 353 353 353 352 351 349 348 346 345 345 347 351 347 341 339 339 340 347 348 348 347 346 345 344 344 345 346 347 348 347 348
355 354 352 353 352 352 350 348 346 344 342 342 345 349 345 337 338 340 339 347 347 347 345 343 342 341 341 342 344 345 346 346 346
355 354 353 352 352 351 350 349 346 343 340 340 342 346 343 336 337 338 340 346 345 345 342 340 340 340 340 340 341 342 343 343 344
351 351 354 352 351 351 350 348 346 342 340 338 342 339 336 335 336 337 344 342 342 341 339 338 339 338 338 338 338 338 339 340 340
348 349 352 352 351 350 350 348 346 342 332 329 336 330 334 333 334 337 344 341 341 339 338 336 337 337 337 337 337 337 337 337 337
345 342 343 343 349 342 345 344 339 335 330 327 324 333 330 330 332 340 342 341 339 337 335 335 335 336 336 335 336 336 336 336 335
339 339 339 340 339 339 338 336 336 333 333 329 327 331 328 328 330 336 341 342 339 338 336 334 335 335 335 335 335 335 335 335 334
336 336 337 337 338 337 336 336 335 332 333 326 329 329 325 325 328 331 341 341 339 338 336 334 335 333 334 334 334 333 333 333 333
336 335 335 336 336 335 336 334 333 330 328 325 328 327 325 325 327 330 334 339 339 337 336 335 335 335 334 332 333 332 331 331 331
334 333 333 335 335 335 335 334 331 328 326 324 325 325 322 324 327 331 330 333 337 337 336 336 335 335 333 332 331 330 330 330 329
332 330 330 333 333 332 332 330 325 323 323 323 324 324 324 324 328 329 328 327 329 334 336 336 334 334 333 332 331 329 329 329 328
330 330 331 332 331 331 330 325 323 320 321 323 324 325 325 327 328 326 328 329 328 328 334 335 334 333 332 331 329 329 329 328 328
329 328 330 329 328 326 326 328 326 322 321 321 321 323 324 324 324 327 329 327 327 327 325 326 329 332 331 329 329 328 328 328 327
329 327 327 329 326 325 329 326 323 321 321 319 319 320 322 322 324 325 326 326 326 325 325 325 325 328 332 330 328 328 328 327 326
330 326 324 326 325 324 326 325 320 321 321 317 316 313 316 319 321 322 324 323 324 325 324 323 323 323 323 326 329 327 326 325 325
328 325 324 324 323 323 325 323 320 319 320 320 314 309 308 314 317 319 321 320 321 322 323 323 321 320 320 323 323 325 325 322 322
327 326 325 326 327 323 324 324 321 320 318 318 318 313 315 310 308 316 318 320 320 321 321 321 321 319 319 321 321 325 324 322 319
326 324 323 326 327 326 323 323 321 320 319 318 315 315 312 312 311 307 312 316 319 320 320 318 321 319 317 315 319 324 322 321 317
Wind_Speed
8 9 9 10 12 12 11 10 10 9 10 12 14 13 17 15 8 7 8 6 17 21 21 22 23 25 25 26 27 28 29 29 28
9 9 9 10 12 11 10 9 9 8 9 9 11 10 14 9 8 7 6 7 18 20 20 22 23 24 24 25 25 27 28 30 29
9 9 9 9 10 12 10 9 8 7 7 8 9 10 12 10 8 6 5 13 19 21 21 22 22 22 23 24 24 25 26 28 29
8 8 9 9 10 12 11 9 8 6 4 6 8 9 12 8 5 7 3 15 18 19 20 19 19 21 22 24 24 24 25 27 28
9 8 10 9 8 9 10 9 8 4 2 5 6 8 8 7 7 5 4 16 16 18 17 17 20 21 22 23 23 24 25 25 26
7 8 9 9 8 9 10 9 8 3 1 1 6 6 3 5 5 4 10 13 15 16 16 17 20 21 21 22 23 24 24 24 25
6 7 11 10 9 10 9 9 8 4 2 2 5 3 4 3 4 4 11 13 15 14 15 17 19 20 21 21 22 24 24 24 24
3 3 4 3 8 3 5 5 3 3 3 3 4 6 4 2 3 5 14 15 15 13 15 15 17 19 20 20 21 23 23 24 24
1 3 3 4 3 4 4 2 4 4 6 6 5 6 5 3 3 5 13 16 18 15 15 14 17 18 18 21 21 21 23 23 24
3 3 3 3 3 3 4 4 3 2 4 4 12 9 6 6 3 2 12 15 20 16 15 13 17 15 18 19 20 21 22 23 23
4 4 4 4 4 4 4 4 3 0 3 6 10 9 7 6 5 4 6 14 17 17 16 14 16 16 16 18 19 20 22 22 23
6 4 4 4 4 4 3 3 3 3 4 7 6 4 6 5 6 6 4 5 14 16 17 15 16 16 15 17 18 19 20 21 22
4 3 3 4 4 4 3 2 3 4 4 3 4 3 3 6 7 7 5 4 3 11 15 17 15 15 16 16 17 18 19 20 20
5 4 4 5 4 4 3 2 3 4 5 4 5 4 3 5 6 6 6 6 5 2 12 16 15 13 13 14 16 17 17 18 18
5 5 5 5 4 1 2 5 4 4 7 5 5 4 4 3 5 6 4 4 4 4 5 5 8 14 13 12 14 15 15 16 16
6 4 4 5 5 4 4 4 8 4 4 4 3 5 5 5 3 2 4 3 3 4 4 4 3 6 13 12 11 12 13 13 13
6 6 5 5 4 5 4 6 3 3 2 3 2 2 1 2 2 2 3 4 2 2 4 4 7 6 4 6 11 8 10 10 10
6 6 5 5 4 4 5 5 5 4 2 3 4 3 3 3 1 1 2 3 2 2 2 4 5 6 5 8 9 8 6 7 7
6 6 6 5 4 6 5 4 3 5 7 2 1 2 3 4 2 0 1 2 1 4 0 2 3 5 6 8 8 9 7 5 4
7 6 5 5 4 6 8 7 6 3 5 5 3 1 2 2 3 3 3 1 2 2 1 1 3 3 5 4 6 10 8 6 4
Wind_Direction
136 133 136 130 119 111 104 98 92 78 65 59 56 76 82 75 57 47 39 48 70 68 65 63 59 55 51 50 49 50 48 45 50
146 135 141 140 126 120 115 105 96 80 67 57 51 71 87 83 64 47 34 57 70 70 65 65 61 58 57 50 47 50 50 48 48
145 143 145 142 140 132 119 110 101 83 65 60 46 80 92 84 78 60 40 74 74 72 72 67 65 61 61 60 52 50 51 51 48
140 140 150 151 155 144 137 125 108 86 56 60 56 75 99 90 82 73 44 74 72 74 71 71 69 66 64 64 61 56 53 53 50
139 155 154 160 161 151 140 139 121 105 35 60 63 65 66 95 86 70 71 78 77 75 74 72 74 71 67 66 67 64 58 55 55
160 162 163 160 162 154 154 143 130 140 282 42 81 65 78 85 95 89 79 80 80 78 78 78 79 77 72 69 69 68 68 62 58
183 174 165 167 161 158 162 153 152 170 255 290 77 75 93 78 87 101 102 94 86 89 85 83 82 77 76 73 71 72 70 67 65
209 159 150 154 146 144 157 155 159 211 251 256 102 119 107 102 98 108 101 99 101 93 88 90 81 81 78 76 74 72 72 71 67
82 134 155 147 152 150 161 197 194 227 262 256 100 128 129 122 110 124 120 117 105 99 94 91 88 85 81 78 74 74 73 72 72
141 131 172 159 150 163 177 199 234 267 327 30 144 144 137 123 114 105 120 123 114 107 101 94 88 85 84 84 79 78 76 73 73
132 135 144 141 151 169 179 182 210 303 70 64 131 140 137 126 123 111 116 123 119 121 107 98 98 90 84 82 81 78 78 75 71
157 152 152 155 144 148 166 178 95 100 79 69 65 107 119 119 116 105 77 110 124 119 115 114 102 97 93 87 84 83 79 75 74
114 102 136 134 127 147 155 153 128 104 84 94 51 44 125 127 124 120 114 95 76 123 125 117 109 105 98 95 91 86 84 79 77
116 106 124 119 128 148 156 116 130 113 79 36 68 35 50 99 109 111 122 125 120 111 130 122 114 112 106 98 95 90 85 83 80
135 128 136 121 111 126 116 114 87 112 114 90 59 41 17 73 93 102 85 102 114 112 107 121 132 122 112 107 100 96 91 88 85
157 147 145 139 131 164 140 102 124 103 118 97 70 48 16 46 81 57 107 104 94 126 138 141 122 129 127 124 111 102 97 93 91
144 146 141 142 132 133 141 140 123 87 180 124 112 158 34 63 22 87 112 115 66 207 182 171 143 129 118 113 101 102 108 104 96
144 154 154 154 134 156 158 144 137 135 175 175 137 129 180 104 338 143 147 118 161 171 293 212 153 129 126 131 132 128 123 116 109
152 166 165 167 150 148 154 159 156 133 172 128 68 69 143 141 157 348 199 204 218 240 244 348 221 147 134 148 148 141 134 129 125
148 146 156 155 165 167 163 165 174 144 157 166 151 131 86 79 130 170 186 175 224 267 10 287 202 174 134 141 167 157 152 144 148